Terminal Aerodrome Forecast
Issued by NWS Denver/Boulder, CO

Home | Current Version | Previous Version | Text Only | Print | Product List | Glossary On
Versions: 1 2 3 4 5 6 7 8 9 10 11 12 13 14 15 16 17 18 19 20 21 22 23 24 25 26 27 28 29 30 31 32 33 34 35 36 37 38 39 40 41 42 43 44 45 46 47 48 49 50
000
FTUS45 KBOU 180115 AAB
TAFDEN
TAF AMD
KDEN 180115Z 1801/1906 01010G18KT P6SM BKN120
     FM180230 08010KT P6SM FEW120 BKN220
     FM180400 15007KT P6SM SCT220
     FM180600 20011KT P6SM SCT200
     FM182100 17012G19KT P6SM FEW110 SCT200=

USA.gov is the U.S. government's official web portal to all federal, state and local government web resources and services.